www.pogodaiklimat.ru

Погода и климат >> Архив погоды >> Пакистан >> Исламабад Сити


ПОГОДА в Исламабад Сити

  • Прогноз погоды в Исламабад Сити
  • Монитор погоды в Исламабад Сити

АРХИВ ПОГОДЫ в Исламабад Сити

Время (UTC), дата Ветер
(напр.,м/с)
 
Видим.   Явления Облачность Т
(С)
Тd
(С)
f
(%)
Тe
(С)
Тes
(С)
Комфортность P
(гПа)
Po
(гПа)
Тmin
(С)
Tmax
(С)
R
(мм)
R24
(мм)
S
(см)
09 12.06 штиль 0 4000 м мгла 3/1 1000 м
[Cu med, cong Ac trans]
+33.5 +16.0 35 +36 +55 опасность
солнечного
удара
1000.2 943.4
12 12.06 ЮЗ 1 4000 м мгла 1/1 1000 м
[Cu med, cong]
+34.5 +17.4 36 +38 +42 очень
душно
998.9 941.6 +34.7
15 12.06 Ю 1 4000 м мгла 3/0
[Ci fib]
+26.5 +7.9 31 +26 +26 жарко 1000.4 942.3
18 12.06 штиль 0 4000 м мгла ясно +21.0 +10.6 51 +23 +23 комфорт 1002.4 942.7
21 12.06 штиль 0 4000 м дым ясно +18.0 +12.9 72 +18 +18 1002.8 942.9
03 13.06 В 1 4000 м дым ясно +28.0 +17.4 53 +32 +41 душно 1003.8 945.1 +15.0
06 13.06 СЗ 1 10 км 1/1 1000 м
[Sc]
+33.5 +16.0 35 +36 +57 опасность
солнечного
удара
1002.8 945.8
09 13.06 СВ 1 4000 м 3/3 1000 м
[Sc diur, vesp]
+36.0 +12.1 24 +36 +50 очень
жарко
1001.0 944.6
12 13.06 ЮЗ 1 4000 м 1/1 1000 м
[Cu hum]
+36.5 +11.7 22 +36 +40 очень
жарко
999.0 942.0 +37.2
15 13.06 СЗ 1 10 км ясно +30.5 +11.6 31 +31 +31 жарко 1000.1 942.7
18 13.06 штиль 0 4000 м дым ясно +24.0 +14.3 55 +27 +27 жарко 1001.9 942.6
21 13.06 штиль 0 4000 м дым ясно +20.5 +14.8 70 +23 +23 комфорт 1001.7 942.3
00 14.06 штиль 0 4000 м дым ясно +19.0 +15.8 82 +20 +20 1002.3 941.9
03 14.06 штиль 0 4000 м мгла ясно +28.5 +15.2 44 +31 +41 душно 1001.2 942.7 +18.5
06 14.06 штиль 0 4000 м мгла ясно +36.0 +13.3 26 +36 +64 опасность
солнечного
удара
1000.7 944.3
09 14.06 ЮЗ 1 4000 м мгла ясно +39.0 +12.2 20 +38 +59 опасность
солнечного
удара
998.2 942.4
12 14.06 штиль 0 4000 м мгла ясно +39.0 +10.9 19 +38 +44 очень
жарко
996.3 939.8 +39.5
15 14.06 штиль 0 4000 м мгла ясно +31.0 +16.5 42 +34 +34 душно 997.9 940.7
18 14.06 штиль 0 4000 м мгла ясно +24.0 +16.2 62 +27 +27 жарко 999.5 940.9
21 14.06 штиль 0 4000 м мгла ясно +21.0 +14.5 66 +24 +24 комфорт 1000.0 940.8
00 15.06 штиль 0 4000 м мгла ясно +21.0 +15.4 70 +24 +24 комфорт 1000.3 940.3
03 15.06 штиль 0 4000 м мгла ясно +29.5 +14.5 40 +32 +42 душно 999.8 941.2 +21.0
06 15.06 ЮЗ 2 4000 м мгла 6/3 1000 м
[Sc Ac trans]
+36.5 +14.0 26 +37 +48 очень
жарко
998.8 942.6
09 15.06 СЗ 4 4000 м мгла 6/3 1000 м
[Sc Ac trans]
+37.0 +12.5 23 +37 +43 очень
жарко
999.3 943.1
12 15.06 СЗ 1 4000 м мгла 3/1 1000 м
[Sc Ac trans]
+38.0 +13.0 23 +38 +42 очень
жарко
995.2 938.5 +38.5
15 15.06 СЗ 2 4000 м мгла 6/4 1000 м
[Sc diur, vesp Ac trans]
+32.0 +13.9 33 +33 +33 жарко 999.7 942.6
18 15.06 В 1 4000 м мгла 3/0
[Ac trans]
+25.5 +16.1 56 +29 +29 душно 1000.8 941.7
21 15.06 штиль 0 4000 м мгла 3/0
[Ac trans]
+22.0 +15.0 64 +25 +25 комфорт 1001.9 942.8
03 16.06 штиль 0 4000 м мгла ясно +30.0 +15.2 41 +33 +43 душно 1000.0 941.8 +19.7
06 16.06 ЮЗ 2 4000 м мгла ясно +35.5 +11.2 23 +35 +55 опасность
солнечного
удара
998.7 942.3
09 16.06 ЮЗ 2 4000 м мгла 3/3 1000 м
[Cu med, cong]
+38.0 +13.0 23 +38 +50 очень
жарко
998.6 942.6
12 16.06 ЮЗ 1 4000 м мгла 1/1 1000 м
[Cu med, cong]
+38.0 +11.7 21 +37 +42 очень
жарко
996.0 939.3 +39.3
15 16.06 штиль 0 4000 м мгла ясно +31.5 +15.2 37 +34 +34 душно 997.6 939.8
18 16.06 штиль 0 4000 м мгла ясно +25.0 +14.6 52 +28 +28 жарко 999.9 941.5
21 16.06 штиль 0 4000 м мгла ясно +24.0 +14.3 55 +27 +27 жарко 999.9 941.3
00 17.06 штиль 0 4000 м мгла ясно +21.5 +15.9 70 +25 +25 комфорт 1000.2 940.4
03 17.06 штиль 0 4000 м мгла 1/1 1000 м
[Cu med, cong]
+31.0 +15.6 39 +33 +43 душно 999.1 941.2 +21.0
06 17.06 ЮВ 1 4000 м мгла 4/1 1000 м
[Sc diur, vesp Ac As]
+36.0 +17.5 34 +39 +56 опасность
солнечного
удара
997.7 941.4
09 17.06 штиль 0 4000 м мгла 4/4 1000 м
[Cu hum]
+38.0 +16.3 28 +40 +54 опасность
солнечного
удара
995.9 940.1
12 17.06 ЮЗ 5 4000 м мгла 9/4 1000 м
[Sc diur, vesp Ac As]
+37.0 +14.8 27 +38 +39 душно 994.2 938.3 +39.5
15 17.06 СВ 1 4000 м мгла 6/4 1000 м
[Sc diur, vesp Ac As]
+29.5 +15.5 43 +32 +32 душно 997.8 940.4
18 17.06 СВ 1 4000 м дым 1/1 1000 м
[Sc diur, vesp]
+26.0 +15.8 53 +29 +29 душно 1001.1 942.1
21 17.06 штиль 0 4000 м дым ясно +22.5 +17.1 72 +27 +27 душно 1001.3 942.3
00 18.06 штиль 0 4000 м дым ясно +20.0 +16.9 82 +22 +22 комфорт 1000.8 940.7
03 18.06 ЮВ 1 4000 м дым ясно +28.5 +17.1 50 +32 +41 душно 1001.3 942.8 +19.5
06 18.06 В 2 10 км ясно +31.0 +15.6 39 +33 +53 опасность
солнечного
удара
1002.3 944.9
09 18.06 ЮВ 2 4000 м 1/1 1000 м
[Cu hum]
+34.0 +15.7 33 +36 +52 опасность
солнечного
удара
999.4 942.7
12 18.06 ЮЗ 1 4000 м 1/1 1000 м
[Cu hum]
+34.5 +16.4 34 +37 +42 очень
душно
997.3 940.0 +35.0
15 18.06 СВ 1 4000 м 1/0
[]
+31.0 +16.5 42 +34 +34 душно 998.2 940.4
18 18.06 штиль 0 4000 м дым ясно +27.5 +16.8 52 +31 +31 душно 1000.7 942.1
21 18.06 4000 м дым ясно +26.0 +15.8 53 1001.8 943.5
00 19.06 штиль 0 4000 м дым 3/0
[Ac trans]
+21.0 +17.9 82 +25 +25 комфорт 1002.3 942.4
03 19.06 штиль 0 4000 м дым ясно +28.5 +18.9 56 +34 +44 очень
душно
1001.3 942.7 +18.0
06 19.06 ЮЗ 1 4000 м мгла 3/3 1000 м
[Sc diur, vesp]
+33.5 +19.7 44 +39 +56 опасность
солнечного
удара
1000.5 943.6

 

Местоположение метеостанции Исламабад Сити (Пакистан): широта 33.72 долгота 73.10 высота над уровнем моря 525 м.

В архиве по умолчанию представлена погода в Исламабад Сити за последнюю неделю. Архивные данные за месяц целиком и за предыдущие месяцы, начиная с января 2011 года, Вы можете получить, выбрав интересующий диапазон дат из раскрывающегося списка и нажав кнопку "Ввод!".


*Определитесь, кто Вы:
робот инопланетянин человек

Внимание! Время в таблицах - всемирное. Для получения местного времени необходимо прибавить поправку, которая равна 5 ч.

Смотрите также архив погоды в соседних городах и на ближайших метеорологических станциях:

Погода в Исламабаде (Пакистан) (11 км)
Погода в Мерри (Пакистан) (34 км)
Погода в Какуле (Пакистан) (53 км)
Погода в Равалакоте (Пакистан) (66 км)
Погода в Балакоре (Пакистан) (77 км)
Погода в Мангле (Пакистан) (87 км)
Погода в Чаквале (Пакистан) (92 км)
Погода в Джеламе (Пакистан) (105 км)
Погода в Рисалпуре (Пакистан) (112 км)
Погода в Черате (Пакистан) (113 км)

Пояснения к столбцам:

Ветер - указаны скорость ветра в м/с - средняя за 10 мин, порывы в срок и между сроками (в фигурных скобках) и направление, откуда дует ветер: С - северный, СВ - северо-восточный, В - восточный, ЮВ - юго-восточный, Ю - южный, ЮЗ - юго-западный, З - западный, СЗ - северо-западный.
Видимость - горизонтальная дальность видимости в метрах или километрах. При видимости от 1 до 10 км при отсутствии осадков обычно наблюдается дымка, при ухудшении видимости до 1 км и менее - туман. В сухую погоду видимость может ухудшаться дымом, пылью или мглою.
Явления - указаны атмосферные явления, наблюдавшиеся в срок или в последний час перед сроком; фигурными скобками обозначены явления, наблюдавшиеся между сроками (за 1-3 часа до срока); квадратными скобками обозначены град или гололедные отложения с указанием их диаметра в мм.
Облачность - указаны через наклонную черту общая и нижняя облачность в баллах и высота нижней границы облаков в метрах; квадратными скобками обозначены формы облаков: Ci - перистые, Cs - перисто-слоистые, Cc - перисто-кучевые, Ac - высококучевые, As - высокослоистые, Sc - слоисто-кучевые, Ns - слоисто-дождевые, Cu - кучевые, Cb - кучево-дождевые. Подробнее классификацию облаков см. в Атласе облаков (PDF).
T - Температура воздуха - температура, измеренная на высоте 2 м над землей.
Td - Температура точки росы - температура, при понижении до которой содержащийся в воздухе водяной пар достигнет насыщения.
f - Относительная влажность воздуха - влажноcть воздуха, измеренная на высоте 2 м над землей.
Te - Эффективная температура - температура, которую ощущает одетый по сезону человек в тени. Характеристика душности погоды. При расчете учитывается влияние влажности воздуха и скорости ветра на теплоощущения человека.
Tes - Эффективная температура на солнце - температура, которую ощущает человек, с поправкой на солнечный нагрев. Характеристика знойности погоды. Зависит от высоты солнца над горизонтом, облачности и скорости ветра. Ночью, в пасмурную погоду, а также при ветре 12 м/с и более поправка равна нулю.
P - Атмосферное давление - приведенное к уровню моря атмосферное давление.
Po - Атмосферное давление - измеренное на уровне метеостанции атмосферное давление.
Tmin - Минимальная температура - минимум температуры воздуха на высоте 2 м над землей.
Tmax - Максимальная температура - максимум температуры воздуха на высоте 2 м над землей.
R - Количество осадков - Количество выпавших осадков за период времени, мм. При наведении курсора мыши на число - период времени, за который выпало указанное количество осадков.
R24 - Количество осадков - Количество выпавших осадков за 24 часа, мм.
S - Снежный покров - Высота снежного покрова, см. При наведении курсора мыши на число - состояние снежного покрова и степень покрытия местности в баллах.